Wind_Speed
9 8 8 8 8 9 9 10 9 9 9 9 9 9 8 8 8 7 7 6 5 5 5 5 5 5 5 4 4 4 3 3 3 3 2 2 2 2 1 2 2 3 3
8 8 8 8 8 8 9 9 9 9 9 9 9 8 7 7 7 6 6 6 5 4 4 5 4 4 4 4 3 3 3 3 3 3 3 2 2 2 2 2 2 3 3
8 8 8 8 8 8 8 8 8 8 8 8 8 7 6 6 5 5 5 5 5 5 4 5 4 3 3 3 3 3 3 3 3 3 3 3 3 2 2 2 2 2 2
7 7 7 7 7 7 8 8 8 8 8 8 7 6 5 4 4 4 5 5 4 4 4 4 4 3 3 2 2 2 2 2 2 2 2 2 3 3 2 2 2 2 2
7 7 7 7 7 7 7 7 7 7 7 7 6 6 5 4 4 4 4 4 4 4 4 4 4 3 3 2 2 2 2 2 2 2 2 2 2 3 2 2 1 1 1
7 7 7 6 6 6 6 6 7 7 6 6 6 5 5 4 4 4 4 4 4 4 3 3 3 3 3 2 2 2 2 3 3 3 3 3 2 2 2 2 2 1 1
7 7 7 7 6 6 6 6 6 6 6 6 5 5 5 4 3 3 4 4 4 3 3 3 3 3 2 2 2 2 2 3 3 3 3 3 3 2 2 2 2 1 1
6 6 6 6 6 6 6 6 6 5 5 5 5 5 4 4 4 4 3 3 3 3 3 3 3 2 3 3 3 3 3 3 3 4 3 3 3 2 2 2 2 1 1
5 5 5 6 6 6 6 6 6 5 5 5 5 4 4 4 4 4 2 2 3 3 3 2 3 3 2 2 2 2 3 2 3 3 3 3 3 2 2 2 2 1 1
6 5 5 5 6 6 6 6 5 5 4 4 5 5 4 4 3 3 2 2 2 2 2 2 2 2 2 2 2 2 2 3 2 2 2 3 3 2 1 1 2 2 1
6 5 5 5 6 6 6 5 5 4 4 4 5 5 5 4 3 3 2 2 2 2 2 1 1 1 2 2 2 1 1 2 2 2 2 2 3 2 2 1 1 1 2
6 6 6 6 5 5 5 5 5 4 4 4 4 4 4 3 3 3 2 2 2 2 1 1 1 2 2 2 2 1 1 1 2 2 2 2 2 2 2 2 2 1 2
6 6 6 6 5 5 5 5 5 5 5 4 3 3 3 3 2 2 1 1 1 1 1 2 2 2 2 2 2 1 1 1 2 2 2 2 2 2 2 2 2 2 2
6 6 6 6 6 5 5 5 5 5 5 4 3 3 2 2 2 2 2 2 2 1 1 1 1 2 2 2 2 2 2 1 1 1 2 2 3 2 2 3 3 3 3
7 7 7 6 6 6 6 5 5 5 4 3 2 2 2 2 2 2 2 2 2 2 1 1 1 2 2 2 2 2 2 1 1 1 2 2 3 3 4 4 4 4 4
7 7 6 6 6 6 6 5 5 5 4 4 3 2 2 2 2 2 3 2 2 2 1 1 2 2 1 2 2 2 2 2 2 2 3 3 4 5 5 5 5 6 6
7 7 7 7 6 6 5 5 5 4 4 4 4 3 3 3 2 2 2 2 2 2 2 2 2 2 2 2 3 3 3 3 3 3 4 4 5 6 6 6 7 7 7
7 7 7 6 6 5 5 4 4 4 4 3 2 2 2 2 2 1 1 2 2 3 3 2 3 3 3 4 4 4 4 4 5 5 5 6 6 7 7 7 8 8 8
5 6 6 5 5 4 3 3 3 3 3 3 2 2 1 1 1 1 1 2 2 3 3 3 4 4 4 5 5 5 6 6 6 7 7 8 8 8 9 9 9 10 10
5 5 5 4 3 2 2 2 2 2 2 2 2 2 2 1 2 2 2 2 3 4 4 5 5 5 5 6 6 7 7 7 7 8 8 9 8 9 10 10 10 10 11
4 4 4 3 3 2 1 1 2 2 3 3 2 2 2 3 3 4 4 4 5 5 6 7 7 7 7 7 7 8 8 8 8 8 9 9 9 10 10 10 11 11 12
2 2 3 3 3 3 2 2 2 3 3 4 4 3 4 5 5 5 6 6 6 6 7 8 8 8 8 8 8 8 8 9 9 9 11 11 11 12 12 13 13 13 13
2 2 3 3 3 3 3 3 3 3 3 4 4 4 6 6 6 6 6 7 8 8 8 9 8 8 9 10 10 10 10 11 11 11 12 13 14 14 15 15 15 15 15
3 4 4 4 4 4 4 5 5 6 6 6 5 5 6 8 8 8 9 9 9 9 10 10 9 10 11 11 12 12 12 13 13 14 14 15 15 16 16 17 17 17 17
5 5 5 5 6 6 6 7 7 8 8 8 8 7 8 9 8 9 10 10 10 10 10 11 11 12 12 12 13 14 14 14 15 15 16 17 17 18 18 18 19 19 18
6 7 7 7 8 9 9 9 9 10 10 10 10 11 11 10 10 11 11 12 12 12 12 12 13 14 14 14 15 15 16 16 17 17 18 19 19 19 19 19 19 19 19
Wind_Direction
91 94 94 93 91 87 84 80 80 82 79 84 85 86 88 88 97 103 106 107 108 104 105 102 102 98 93 88 82 79 74 70 67 68 58 49 45 65 97 115 121 130 134
89 92 93 92 90 87 81 77 78 84 79 81 85 87 89 92 98 100 103 103 103 101 102 102 97 92 86 80 79 78 72 69 64 65 57 48 38 49 70 110 119 129 136
88 92 94 92 91 87 82 78 78 81 80 80 85 90 93 95 95 103 105 100 101 101 97 98 93 87 82 76 76 73 67 63 62 57 53 47 40 40 58 108 128 137 144
86 92 96 94 90 87 84 81 81 82 83 83 83 83 88 96 99 104 98 96 97 95 95 95 91 82 73 75 72 66 66 67 61 50 46 35 33 50 59 100 124 143 153
87 89 94 92 89 87 85 83 82 80 82 82 82 81 81 95 94 84 82 85 90 93 96 91 88 78 65 59 57 53 59 59 46 27 8 10 31 49 55 73 86 125 144
89 90 92 93 93 91 88 84 82 80 79 78 79 80 80 82 86 88 88 88 89 87 89 89 84 74 60 52 46 48 45 38 28 13 5 13 29 48 52 56 62 80 98
93 94 94 93 94 91 87 84 85 84 79 79 80 80 77 74 82 103 99 97 94 88 87 85 79 68 59 52 43 45 46 44 32 14 10 17 33 53 50 35 29 34 40
90 96 98 94 91 89 89 87 87 85 82 82 80 77 74 73 81 93 103 98 99 96 89 84 80 61 50 46 48 53 43 42 29 24 28 36 39 44 41 27 24 11 356
90 98 103 106 103 99 94 90 88 84 81 85 82 75 74 77 77 76 88 96 108 105 97 85 82 59 47 41 46 38 33 28 22 21 34 41 41 38 30 23 13 2 349
86 95 102 107 104 100 93 90 89 85 79 84 83 77 70 70 70 66 65 85 110 111 105 98 85 53 36 31 30 31 29 21 11 14 26 30 33 27 14 13 7 3 359
87 98 106 110 105 101 95 89 88 83 80 86 83 78 76 70 62 58 68 78 109 104 100 101 78 59 42 42 44 36 33 23 12 16 18 13 15 8 359 2 3 353 346
86 95 96 102 105 98 92 87 85 85 83 83 86 82 74 66 56 53 60 66 82 85 66 45 28 34 43 41 36 32 43 25 16 20 20 10 1 351 340 325 327 323 338
88 92 92 95 96 95 90 87 86 87 88 88 87 88 79 68 58 42 52 55 50 57 46 32 35 33 31 42 48 52 46 19 2 5 4 2 352 342 339 325 306 301 310
84 93 97 95 94 90 86 86 89 90 84 84 83 85 84 71 63 51 37 9 356 351 331 351 32 24 16 22 32 29 22 358 352 347 346 345 338 329 328 319 302 299 300
82 94 97 94 94 93 89 87 90 90 87 75 73 65 55 59 63 53 45 13 355 347 349 14 13 6 10 22 26 26 33 17 334 316 317 320 318 313 307 305 302 302 298
80 90 96 96 95 95 92 87 84 86 81 75 71 63 54 53 55 46 40 23 5 349 339 338 325 330 332 342 344 346 356 351 323 307 309 307 305 305 304 300 298 300 300
72 84 90 89 89 89 87 86 84 80 76 77 70 68 58 51 49 42 37 15 350 331 324 310 310 319 314 308 311 315 320 320 307 302 302 300 301 303 300 290 292 295 294
75 84 85 84 84 80 81 82 81 76 70 70 65 59 51 43 45 37 20 357 339 326 327 311 301 301 301 298 295 298 302 303 300 294 296 295 295 296 296 292 291 294 293
73 82 78 77 76 74 78 79 81 71 56 49 38 28 32 52 52 12 348 332 327 321 310 307 295 292 294 297 293 289 293 298 292 288 287 289 292 294 293 291 291 289 290
58 63 65 68 66 62 61 60 54 32 23 19 15 6 359 0 341 336 343 329 326 325 311 310 300 292 290 289 289 288 287 287 285 284 287 289 296 297 296 293 292 289 285
51 50 49 46 38 23 10 6 351 349 357 355 345 331 320 315 314 315 319 318 314 315 314 312 309 296 291 288 285 285 282 278 277 283 288 290 296 300 304 300 294 291 289
28 25 22 16 9 353 334 327 328 332 341 336 315 305 299 298 299 303 308 308 308 308 311 304 302 297 291 288 287 288 288 280 274 277 281 282 287 292 294 296 295 293 292
338 347 334 330 336 328 313 299 302 304 310 313 309 301 298 296 296 297 298 302 302 301 304 303 296 293 291 288 283 282 282 283 278 279 280 280 282 286 287 288 289 290 288
329 339 325 318 317 312 309 307 297 294 295 294 294 290 290 292 293 294 293 296 296 295 297 298 297 291 290 289 287 284 281 277 276 282 284 282 284 286 287 287 286 287 288
315 321 322 307 305 299 294 294 298 293 291 288 284 285 288 289 292 292 291 295 294 291 292 292 296 295 292 291 289 287 287 283 279 279 281 283 284 285 286 287 287 286 286
297 302 308 301 295 294 287 286 291 292 292 288 286 287 289 293 295 295 292 293 293 289 289 289 292 293 293 291 290 288 285 284 283 281 282 283 283 284 287 286 285 286 285
Height
5885 5884 5884 5884 5884 5884 5884 5884 5884 5885 5885 5885 5886 5886 5887 5888 5889 5890 5891 5892 5892 5893 5893 5894 5894 5894 5895 5895 5895 5895 5895 5895 5895 5895 5894 5894 5894 5894 5894 5894 5894 5895 5895
5886 5886 5886 5886 5886 5886 5886 5886 5886 5886 5886 5887 5887 5888 5889 5889 5890 5891 5892 5893 5893 5894 5894 5894 5895 5895 5895 5895 5896 5896 5895 5895 5895 5895 5895 5895 5895 5894 5894 5894 5895 5895 5895
5887 5887 5888 5887 5887 5887 5887 5888 5888 5888 5888 5888 5889 5890 5890 5891 5891 5892 5893 5893 5894 5894 5895 5895 5895 5896 5896 5896 5896 5896 5896 5896 5895 5896 5895 5895 5895 5895 5895 5894 5895 5895 5895
5889 5889 5889 5889 5889 5889 5889 5889 5889 5889 5890 5890 5890 5891 5891 5892 5892 5893 5893 5894 5895 5895 5896 5896 5896 5896 5896 5896 5896 5896 5896 5896 5896 5896 5896 5896 5895 5895 5895 5895 5895 5895 5895
5890 5890 5890 5889 5889 5889 5889 5890 5890 5890 5891 5891 5891 5892 5892 5893 5893 5894 5894 5895 5895 5896 5896 5897 5897 5897 5897 5896 5897 5897 5897 5897 5897 5896 5896 5896 5896 5896 5895 5895 5895 5895 5895
5891 5891 5891 5890 5890 5890 5891 5891 5891 5891 5892 5892 5892 5893 5893 5893 5894 5894 5895 5895 5896 5897 5897 5897 5897 5897 5897 5897 5897 5897 5897 5897 5897 5897 5896 5896 5896 5896 5896 5896 5895 5895 5895
5892 5892 5891 5891 5891 5892 5892 5892 5892 5892 5892 5893 5893 5893 5893 5894 5894 5894 5895 5896 5896 5897 5897 5897 5897 5897 5897 5897 5897 5897 5897 5897 5897 5897 5896 5896 5896 5896 5896 5896 5896 5896 5895
5893 5893 5892 5892 5892 5892 5892 5893 5893 5893 5893 5894 5894 5894 5894 5894 5895 5895 5896 5896 5897 5897 5897 5897 5898 5898 5898 5897 5897 5897 5897 5897 5897 5897 5897 5896 5896 5896 5896 5896 5896 5896 5896
5893 5893 5893 5893 5893 5893 5893 5893 5893 5894 5894 5894 5895 5895 5895 5895 5895 5896 5896 5896 5897 5897 5898 5898 5898 5898 5898 5898 5898 5898 5898 5897 5897 5897 5897 5897 5897 5897 5896 5896 5896 5896 5896
5894 5894 5894 5894 5894 5894 5894 5894 5894 5894 5895 5895 5895 5895 5896 5896 5896 5896 5896 5897 5897 5897 5898 5898 5898 5898 5898 5898 5897 5897 5898 5898 5897 5897 5897 5897 5897 5897 5897 5896 5896 5896 5896
5894 5894 5894 5894 5894 5894 5895 5895 5895 5895 5895 5896 5896 5896 5896 5897 5897 5897 5897 5897 5897 5898 5898 5898 5898 5898 5898 5898 5898 5898 5898 5898 5898 5898 5897 5897 5897 5897 5897 5897 5897 5896 5896
5895 5895 5895 5895 5895 5896 5896 5896 5896 5896 5896 5896 5897 5897 5897 5897 5897 5897 5897 5898 5898 5898 5898 5898 5899 5899 5898 5898 5898 5898 5898 5898 5898 5898 5898 5897 5897 5897 5897 5897 5897 5896 5896
5895 5895 5896 5896 5896 5896 5897 5896 5896 5896 5897 5897 5897 5897 5898 5898 5898 5898 5898 5898 5898 5898 5898 5899 5899 5899 5899 5898 5898 5898 5898 5898 5898 5898 5898 5898 5898 5897 5897 5897 5897 5896 5896
5896 5896 5896 5897 5897 5897 5897 5897 5897 5897 5897 5898 5898 5898 5898 5898 5898 5898 5898 5898 5898 5898 5898 5899 5899 5899 5899 5899 5899 5898 5898 5898 5898 5898 5898 5898 5898 5897 5897 5897 5896 5896 5895
5897 5897 5897 5898 5898 5898 5898 5898 5898 5898 5898 5898 5898 5898 5898 5898 5898 5898 5898 5898 5898 5898 5898 5898 5899 5899 5899 5899 5898 5898 5898 5898 5898 5898 5898 5898 5898 5897 5897 5896 5896 5895 5895
5899 5898 5898 5898 5899 5899 5899 5899 5899 5899 5898 5898 5898 5899 5898 5898 5898 5898 5898 5898 5898 5898 5898 5898 5898 5898 5899 5898 5898 5898 5898 5898 5897 5897 5897 5897 5897 5897 5896 5895 5895 5895 5894
5899 5899 5899 5899 5900 5900 5900 5900 5899 5899 5899 5899 5899 5899 5899 5899 5898 5898 5898 5898 5898 5898 5898 5898 5898 5898 5898 5898 5898 5897 5897 5897 5897 5897 5896 5896 5896 5895 5895 5894 5894 5894 5893
5901 5901 5900 5900 5901 5901 5901 5900 5900 5900 5900 5899 5899 5899 5899 5898 5898 5898 5898 5898 5898 5898 5897 5897 5897 5897 5897 5897 5897 5896 5896 5896 5896 5896 5895 5895 5895 5894 5894 5893 5893 5892 5892
5902 5902 5901 5901 5901 5901 5901 5901 5900 5900 5900 5899 5899 5899 5898 5898 5898 5898 5898 5898 5897 5897 5897 5897 5896 5896 5896 5896 5896 5895 5895 5895 5895 5894 5894 5893 5893 5892 5892 5891 5891 5891 5890
5903 5903 5902 5901 5901 5901 5901 5901 5901 5900 5900 5899 5899 5899 5898 5898 5898 5898 5898 5897 5897 5896 5896 5896 5895 5895 5895 5895 5894 5894 5893 5893 5893 5892 5892 5892 5891 5890 5890 5889 5889 5888 5888
5904 5903 5902 5902 5901 5901 5901 5901 5901 5900 5900 5899 5899 5898 5898 5898 5897 5897 5897 5896 5896 5896 5895 5895 5894 5894 5893 5893 5893 5892 5891 5891 5891 5891 5890 5890 5889 5889 5888 5887 5887 5886 5885
5903 5903 5902 5902 5901 5901 5901 5900 5900 5900 5899 5898 5898 5897 5897 5897 5896 5896 5896 5895 5895 5894 5894 5893 5893 5892 5892 5891 5891 5890 5890 5890 5889 5889 5889 5888 5887 5886 5886 5885 5884 5883 5882
5902 5902 5902 5901 5901 5900 5900 5900 5899 5899 5898 5898 5897 5896 5896 5895 5895 5895 5894 5894 5893 5893 5892 5891 5891 5890 5890 5889 5888 5888 5888 5887 5887 5887 5886 5885 5885 5884 5883 5881 5881 5880 5879
5901 5901 5900 5900 5900 5899 5899 5899 5898 5898 5897 5896 5895 5895 5894 5894 5893 5893 5893 5892 5891 5890 5890 5889 5888 5888 5887 5887 5886 5885 5885 5885 5884 5884 5883 5882 5881 5880 5879 5878 5877 5876 5875
5901 5901 5900 5899 5899 5898 5897 5897 5896 5896 5895 5895 5894 5893 5893 5892 5891 5891 5890 5889 5889 5888 5887 5887 5886 5885 5884 5884 5883 5882 5882 5881 5881 5880 5879 5878 5878 5877 5875 5874 5873 5872 5871
5900 5900 5899 5898 5897 5897 5896 5895 5895 5894 5893 5893 5892 5891 5890 5889 5888 5888 5887 5886 5886 5885 5884 5884 5883 5882 5881 5881 5880 5879 5878 5877 5877 5876 5875 5874 5873 5872 5871 5870 5869 5867 5866